Hoquiam, WA

4:26 PM PST on February 18, 2018 (GMT -0800)
Bowerman

Weather History for KHQM - January, 2014

Change the Weather History Date:

Thursday, January 23, 2014

  Actual Average Record
Temperature  
Mean Temperature 48 °F 43 °F  
Max Temperature 55 °F 48 °F 58 °F (1968)
Min Temperature 40 °F 38 °F 19 °F (1969)
Degree Days  
Heating Degree Days 17 22  
Month to date heating degree days 489 517  
Cooling Degree Days 0 0  
Month to date cooling degree days 0 0  
Year to date cooling degree days 0 0  
Moisture  
Dew Point 39 °F    
Average Humidity 72    
Maximum Humidity 89    
Minimum Humidity 55    
Precipitation  
Precipitation 0.00 in 0.31 in 3.01 in (1984)
Month to date precipitation 5.11 7.96  
Year to date precipitation 5.11 7.96  
Sea Level Pressure  
Sea Level Pressure 30.37 in    
Wind  
Wind Speed 13 mph (ENE)    
Max Wind Speed 20 mph    
Max Gust Speed 26 mph    
Visibility 6 miles    
Events      
T = Trace of Precipitation, MM = Missing Value Source: NWS Daily Summary

Daily Weather History Graph

Daily Weather History Graph

Search for Another Location

Airport or City:

Trip Planner

Search our weather history database for the weather conditions in past years. The results will help you decide how hot, cold, wet, or windy it might be!

Date:

Astronomy

Jan. 23, 2014 Rise Set
Actual Time 7:50 AM PST 5:05 PM PST
Civil Twilight 7:17 AM PST 5:38 PM PST
Nautical Twilight 6:39 AM PST 6:15 PM PST
Astronomical Twilight 6:03 AM PST 6:52 PM PST
Moon 12:11 AM PST (1/23) 10:58 AM PST (1/23)
Length of Visible Light 10h 21m
Length of Day
9h 14m
Waning Gibbous, 54% of the Moon is Illuminated
Jan 23
Waning Gibbous
Jan 23
Last Quarter
Jan 30
New
Feb 6
First Quarter
Feb 14
Full

Hourly Weather History & Observations

Time (PST) Temp. Windchill Dew Point Humidity Pressure Visibility Wind Dir Wind Speed Gust Speed Precip Events Conditions
12:40 AM 43.0 °F 36.4 °F 39.0 °F 86% 30.39 in 7.0 mi NE 12.7 mph - N/A   Mostly Cloudy
12:53 AM 42.1 °F 35.2 °F 39.0 °F 89% 30.40 in 7.0 mi ENE 12.7 mph - N/A   Scattered Clouds
1:53 AM 42.1 °F 34.9 °F 39.0 °F 89% 30.40 in 7.0 mi ENE 13.8 mph - N/A   Partly Cloudy
2:53 AM 42.1 °F 35.2 °F 37.9 °F 85% 30.39 in 6.0 mi ENE 12.7 mph 23.0 mph N/A   Clear
3:53 AM 41.0 °F 34.3 °F 37.9 °F 89% 30.40 in 6.0 mi NE 11.5 mph - N/A   Clear
4:53 AM 41.0 °F 34.3 °F 37.9 °F 89% 30.40 in 6.0 mi NE 11.5 mph - N/A   Clear
5:53 AM 41.0 °F 34.3 °F 37.9 °F 89% 30.39 in 6.0 mi ENE 11.5 mph - N/A   Clear
6:53 AM 41.0 °F 34.3 °F 37.9 °F 89% 30.40 in 6.0 mi NE 11.5 mph 21.9 mph N/A   Clear
7:53 AM 41.0 °F 32.5 °F 37.9 °F 89% 30.39 in 5.0 mi ENE 17.3 mph 25.3 mph N/A   Clear
8:53 AM 42.1 °F 34.2 °F 39.0 °F 89% 30.39 in 6.0 mi ENE 16.1 mph 24.2 mph N/A   Clear
9:44 AM 44.1 °F 37.4 °F 39.0 °F 82% 30.38 in 1.8 mi NE 13.8 mph 24.2 mph N/A   Haze
9:53 AM 44.1 °F 37.1 °F 39.9 °F 85% 30.39 in 4.0 mi NE 15.0 mph 23.0 mph N/A   Clear
10:20 AM 46.0 °F 40.2 °F 39.9 °F 79% 30.38 in 2.0 mi ENE 12.7 mph - N/A   Haze
10:30 AM 46.0 °F 40.2 °F 39.9 °F 79% 30.38 in 6.0 mi ENE 12.7 mph - N/A   Haze
10:32 AM 46.0 °F 39.9 °F 39.9 °F 79% 30.38 in 1.8 mi ENE 13.8 mph - N/A   Haze
10:53 AM 46.9 °F - 39.9 °F 77% 30.39 in 7.0 mi ENE 10.4 mph 21.9 mph N/A   Clear
11:28 AM 48.0 °F - 41.0 °F 77% 30.37 in 1.5 mi East 15.0 mph - N/A   Haze
11:43 AM 48.9 °F - 41.0 °F 74% 30.37 in 7.0 mi ENE 11.5 mph - N/A   Clear
11:53 AM 50.0 °F - 39.9 °F 68% 30.38 in 7.0 mi ENE 12.7 mph - N/A   Clear
12:53 PM 51.1 °F - 42.1 °F 71% 30.37 in 7.0 mi ENE 11.5 mph - N/A   Clear
1:53 PM 54.0 °F - 41.0 °F 62% 30.35 in 7.0 mi ENE 9.2 mph - N/A   Clear
2:53 PM 55.0 °F - 39.9 °F 57% 30.34 in 7.0 mi NE 13.8 mph - N/A   Clear
3:53 PM 52.0 °F - 41.0 °F 66% 30.34 in 7.0 mi East 11.5 mph - N/A   Clear
4:53 PM 50.0 °F - 39.9 °F 68% 30.34 in 7.0 mi ENE 12.7 mph - N/A   Clear
5:53 PM 48.0 °F - 39.9 °F 74% 30.32 in 8.0 mi NE 12.7 mph - N/A   Clear
6:53 PM 46.9 °F - 39.0 °F 74% 30.33 in 8.0 mi NE 15.0 mph - N/A   Clear
7:53 PM 46.0 °F 39.0 °F 37.9 °F 73% 30.33 in 8.0 mi NE 17.3 mph 24.2 mph N/A   Clear
8:53 PM 45.0 °F 38.2 °F 37.0 °F 74% 30.34 in 8.0 mi ENE 15.0 mph - N/A   Clear
9:53 PM 46.0 °F 40.6 °F 37.0 °F 71% 30.35 in 8.0 mi ENE 11.5 mph - N/A   Clear
10:53 PM 44.1 °F 38.6 °F 36.0 °F 73% 30.36 in 8.0 mi East 10.4 mph - N/A   Clear
11:53 PM 42.1 °F 34.9 °F 37.0 °F 82% 30.37 in 7.0 mi East 13.8 mph - N/A   Clear